[[{"header":{"parameterUnit":"m.s-1","parameterCategory":1,"la1":30.2991,"la2":30.254,"lo1":-89.0895,"lo2":-89.0444,"dy":0.0017,"dx":0.0017,"nx":28,"ny":28,"refTime":"2025-11-04T09:00:00:Z","depth":0,"parameterNumber":2,"parameterNumberName":"U-component_of_WINDS"},"data":[0,0,0,0,0,0,0,0,0,0,0,0,0,0,0,0,0,0,0,0,0,0,0,0,0,0,0,0,0,0,0,0,0,0,0,0,0,0,0,0,0,0,0,0,0,0,0,0,0,0,0,0,0,0,0,0,0,0,-2.2874,-2.2875,0,-2.2888,-2.2888,-2.2888,-2.2781,-2.2778,-2.2775,-2.2773,-2.2788,-2.2791,-2.2794,0,0,0,0,0,0,0,0,0,0,0,0,0,-2.2757,-2.276,-2.2874,-2.2875,-2.2875,-2.2888,-2.2888,-2.2888,-2.2782,-2.2778,-2.2775,-2.2771,-2.2787,-2.2791,-2.2794,0,0,0,0,0,0,0,0,0,0,0,0,0,-2.2793,-2.2761,-2.2874,-2.2823,-2.2819,-2.2888,-2.2888,-2.2888,-2.2783,-2.2778,-2.2774,-2.277,-2.2786,-2.279,-2.2795,-2.2914,0,0,-2.2809,-2.2812,0,0,0,0,0,0,0,0,-2.2791,-2.2798,-2.2831,-2.2827,-2.2822,-2.2828,-2.2852,-2.2897,-2.2784,-2.2796,-2.2772,-2.2767,-2.2805,-2.2808,-2.282,-2.2915,-2.2915,-2.281,-2.2813,-2.2815,-2.2816,0,0,0,0,0,0,0,-2.2789,-2.2796,-2.288,-2.2831,-2.2826,-2.28,-2.28,-2.286,-2.2826,-2.2795,-2.2787,-2.279,-2.2802,-2.2816,-2.282,-2.2916,-2.281,-2.2814,-2.2817,-2.2819,-2.3108,-2.3113,0,0,0,0,0,0,-2.2793,-2.2795,-2.2879,-2.288,-2.2795,-2.2806,-2.2806,-2.2831,-2.2825,-2.282,-2.2794,-2.2785,-2.281,-2.2814,-2.282,-2.296,-2.2815,-2.2819,-2.2822,-2.3104,-2.3109,-2.3115,0,0,0,0,0,0,-2.2791,-2.2802,-2.2879,-2.2836,-2.2843,-2.2812,-2.2841,-2.2834,-2.2847,-2.2824,-2.2817,-2.2815,-2.2807,-2.2813,-2.2891,-2.2959,-2.2821,-2.2826,-2.3098,-2.3105,-2.3112,-2.324,0,0,0,0,0,0,-2.2788,-2.2802,-2.2847,-2.2837,-2.2846,-2.295,-2.2846,-2.2837,-2.2856,-2.2844,-2.2842,-2.2837,-2.2804,-2.2885,-2.2896,-2.2963,-2.283,-2.3092,-2.3101,-2.311,-2.323,-2.3251,-2.3269,0,0,0,0,0,-2.2784,-2.2882,-2.285,-2.286,-2.2902,-2.2954,-2.2959,-2.2919,-2.2862,-2.2907,-2.2892,-2.2837,-2.2949,-2.2894,-2.2906,-2.2975,-2.3087,-2.3099,-2.3109,-2.3221,-2.3247,-2.3268,0,0,0,0,0,0,-2.2901,-2.288,-2.2844,-2.2941,-2.2951,-2.2936,-2.2992,-2.2947,-2.2973,-2.2961,-2.2909,-2.291,-2.2997,-2.2993,-2.2932,-2.309,-2.3008,-2.3022,-2.3089,-2.3113,-2.3133,-2.3133,-2.2834,0,0,0,0,0,-2.2938,-2.2983,-2.2962,-2.305,-2.3056,-2.3024,-2.3045,-2.3013,-2.302,-2.3024,-2.3014,-2.3024,-2.3061,-2.3086,-2.3119,-2.3228,-2.3226,-2.3281,-2.33,-2.3317,-2.333,-2.3387,-2.3412,-2.315,-2.315,-2.315,0,0,-2.3016,-2.301,-2.3041,-2.3074,-2.3077,-2.3124,-2.3028,-2.3082,-2.3117,-2.3032,-2.3105,-2.3099,-2.3106,-2.32,-2.3241,-2.3199,-2.3401,-2.333,-2.3343,-2.3348,-2.3401,-2.3426,-2.3448,-2.3158,-2.3156,-2.3155,0,0,-2.3181,-2.3181,-2.3254,-2.3259,-2.3265,-2.3242,-2.326,-2.3252,-2.3245,-2.3317,-2.3254,-2.3295,-2.336,-2.3367,-2.338,-2.3547,-2.3499,-2.3559,-2.3662,-2.3719,-2.3739,-2.3757,-2.3818,-2.3841,-2.3572,-2.3572,-2.3572,0,-2.3277,-2.3346,-2.3298,-2.3357,-2.3373,-2.3297,-2.3372,-2.3379,-2.3395,-2.3409,-2.3362,-2.3441,-2.3441,-2.3536,-2.3577,-2.3589,-2.3608,-2.356,-2.374,-2.3758,-2.3774,-2.3831,-2.3854,-2.358,-2.3579,-2.3578,-2.3577,0,-2.3463,-2.3512,-2.3571,-2.3588,-2.3611,-2.3677,-2.364,-2.3669,-2.3634,-2.3616,-2.3691,-2.3687,-2.3718,-2.3738,-2.3705,-2.3828,-2.3803,-2.3749,-2.3667,-2.3807,-2.386,-2.3882,-2.359,-2.3588,-2.3585,-2.3584,0,0,-2.3705,-2.3694,-2.3717,-2.3724,-2.3724,-2.3761,-2.3823,-2.3853,-2.3879,-2.3892,-2.3944,-2.4,-2.395,-2.3964,-2.3931,-2.398,-2.4114,-2.392,-2.392,-2.3958,-2.4252,-2.4294,-2.432,-2.4081,-2.4085,-2.4088,-2.4251,0,-2.3868,-2.3974,-2.3933,-2.4043,-2.4088,-2.4015,-2.407,-2.4076,-2.4061,-2.4096,-2.4079,-2.412,-2.405,-2.4058,-2.4104,-2.4089,-2.4173,-2.4076,-2.413,-2.4132,-2.4133,-2.4347,-2.4392,-2.4547,-2.4272,-2.4275,-2.4278,0,-2.4072,-2.4094,-2.4208,-2.42,-2.4217,-2.4267,-2.4291,-2.4325,-2.4331,-2.4316,-2.4332,-2.4287,-2.4348,-2.4264,-2.4348,-2.4283,-2.4302,-2.4297,-2.4302,-2.4307,-2.4215,-2.436,-2.4595,-2.4619,-2.431,-2.4307,-2.4305,0,-2.4239,-2.4296,-2.4372,-2.438,-2.4372,-2.4409,-2.4407,-2.4408,-2.4428,-2.4449,-2.4461,-2.4489,-2.4505,-2.4527,-2.4491,-2.4433,-2.458,-2.4493,-2.4571,-2.4572,-2.4607,-2.4606,-2.485,-2.4616,-2.4616,-2.4616,-2.4615,0,-2.4426,-2.45,-2.4447,-2.4494,-2.4574,-2.4525,-2.4606,-2.4596,-2.4597,-2.4641,-2.4579,-2.4622,-2.4571,-2.4608,-2.458,-2.4655,-2.4662,-2.4652,-2.4644,-2.4659,-2.4661,-2.4672,-2.4662,-2.4622,-2.462,-2.4619,-2.4618,0,-2.4627,-2.4595,-2.4673,-2.4659,-2.4657,-2.4716,-2.4704,-2.4747,-2.4726,-2.4783,-2.4793,-2.4762,-2.4803,-2.4768,-2.4809,-2.4789,-2.4888,-2.4864,-2.4887,-2.4881,-2.4961,-2.4955,-2.5224,-2.5257,-2.5,-2.5003,-2.5005,0,-2.475,-2.4805,-2.4796,-2.4821,-2.4823,-2.4864,-2.4884,-2.4837,-2.4861,-2.487,-2.4913,-2.4948,-2.4975,-2.5044,-2.5025,-2.5055,-2.5032,-2.5124,-2.5036,-2.505,-2.5035,-2.5034,-2.5039,-2.5143,-2.5146,-2.5148,-2.515,0,-2.4972,-2.4953,-2.4984,-2.501,-2.5036,-2.5054,-2.5068,-2.5092,-2.5044,-2.5073,-2.5114,-2.5135,-2.5175,-2.5212,-2.5235,-2.5233,-2.5185,-2.5177,-2.5197,-2.5214,-2.5226,-2.5222,-2.4938,-2.5172,-2.517,-2.5168,-2.5167,-2.5166,-2.5139,-2.5184,-2.5185,-2.5222,-2.5227,-2.524,-2.528,-2.5264,-2.5298,-2.5327,-2.5297,-2.5347,-2.535,-2.5376,-2.538,-2.5419,-2.5381,-2.5409,-2.5417,-2.5425,-2.5438,-2.5218,-2.5423,-2.5422,-2.5422,-2.5421,-2.5421,0,-2.5359,-2.5355,-2.539,-2.541,-2.5439,-2.5389,-2.5401,-2.5429,-2.5474,-2.548,-2.5507,-2.5554,-2.5589,-2.5572,-2.5602,-2.5637,-2.5615,-2.5646,-2.5645,-2.5645,-2.5469,-2.545,-2.5663,-2.5663,-2.5663,-2.5663,-2.5663,-2.5663,-2.5477,-2.5552,-2.5532,-2.5608,-2.5604,-2.5652,-2.5664,-2.5676,-2.5681,-2.5737,-2.5765,-2.5753,-2.575,-2.578,-2.5809,-2.5803,-2.5818,-2.5858,-2.5845,-2.5681,-2.5657,-2.5635,-2.5616,-2.5861,-2.5862,-2.6017,-2.6019,-2.602]},{"header":{"parameterUnit":"m.s-1","parameterCategory":1,"la1":30.2991,"la2":30.254,"lo1":-89.0895,"lo2":-89.0444,"dy":0.0017,"dx":0.0017,"nx":28,"ny":28,"refTime":"2025-11-04T09:00:00:Z","depth":0,"parameterNumber":3,"parameterNumberName":"V-component_of_WINDS"},"data":[0,0,0,0,0,0,0,0,0,0,0,0,0,0,0,0,0,0,0,0,0,0,0,0,0,0,0,0,0,0,0,0,0,0,0,0,0,0,0,0,0,0,0,0,0,0,0,0,0,0,0,0,0,0,0,0,0,0,-3.5517,-3.5517,0,-3.5543,-3.5544,-3.5544,-3.5463,-3.546,-3.5458,-3.5455,-3.5481,-3.5483,-3.5486,0,0,0,0,0,0,0,0,0,0,0,0,0,-3.5392,-3.5395,-3.5517,-3.5517,-3.5517,-3.5543,-3.5544,-3.5544,-3.5463,-3.546,-3.5457,-3.5454,-3.548,-3.5483,-3.5487,0,0,0,0,0,0,0,0,0,0,0,0,0,-3.5436,-3.5396,-3.5517,-3.548,-3.5477,-3.5543,-3.5544,-3.5544,-3.5464,-3.546,-3.5456,-3.5453,-3.5478,-3.5483,-3.5487,-3.5589,0,0,-3.5501,-3.5503,0,0,0,0,0,0,0,0,-3.5433,-3.544,-3.5485,-3.5483,-3.548,-3.5496,-3.5509,-3.5559,-3.5465,-3.5469,-3.5455,-3.5451,-3.5489,-3.5492,-3.5505,-3.559,-3.5591,-3.5501,-3.5504,-3.5506,-3.5507,0,0,0,0,0,0,0,-3.543,-3.5439,-3.5527,-3.5486,-3.5483,-3.5461,-3.5463,-3.5518,-3.5499,-3.5468,-3.5462,-3.5467,-3.5486,-3.5501,-3.5505,-3.5592,-3.5501,-3.5505,-3.5508,-3.551,-3.576,-3.5764,0,0,0,0,0,0,-3.5432,-3.5437,-3.5526,-3.5528,-3.5447,-3.5467,-3.5469,-3.5494,-3.5498,-3.5495,-3.547,-3.5463,-3.5495,-3.55,-3.5506,-3.5624,-3.5506,-3.551,-3.5513,-3.5756,-3.5761,-3.5765,0,0,0,0,0,0,-3.543,-3.5441,-3.5525,-3.5481,-3.549,-3.5473,-3.5502,-3.5497,-3.5511,-3.55,-3.5496,-3.5489,-3.5492,-3.5499,-3.5569,-3.5624,-3.5512,-3.5516,-3.5752,-3.5758,-3.5763,-3.5863,0,0,0,0,0,0,-3.5427,-3.5441,-3.548,-3.5482,-3.5493,-3.5589,-3.5506,-3.55,-3.552,-3.5511,-3.5516,-3.5513,-3.549,-3.5563,-3.5573,-3.5628,-3.552,-3.5747,-3.5754,-3.5761,-3.5854,-3.5871,-3.5886,0,0,0,0,0,-3.5423,-3.5507,-3.5483,-3.5494,-3.5542,-3.5593,-3.5598,-3.557,-3.5525,-3.5563,-3.5555,-3.5513,-3.5616,-3.557,-3.5582,-3.5639,-3.5743,-3.5752,-3.5761,-3.5847,-3.5868,-3.5885,0,0,0,0,0,0,-3.5511,-3.5507,-3.548,-3.5567,-3.5581,-3.5579,-3.5627,-3.5593,-3.562,-3.561,-3.5574,-3.5575,-3.5651,-3.5652,-3.5601,-3.5737,-3.5672,-3.5683,-3.5733,-3.5753,-3.5768,-3.5766,-3.5523,0,0,0,0,0,-3.5541,-3.5584,-3.5577,-3.5655,-3.5663,-3.5644,-3.5665,-3.5643,-3.5655,-3.566,-3.5657,-3.5671,-3.5705,-3.5729,-3.5761,-3.5854,-3.5853,-3.5899,-3.5915,-3.5927,-3.5938,-3.5985,-3.6005,-3.5795,-3.5795,-3.5795,0,0,-3.5603,-3.5606,-3.5635,-3.5673,-3.5681,-3.5725,-3.565,-3.5699,-3.5731,-3.5667,-3.5733,-3.5731,-3.5743,-3.5825,-3.586,-3.5828,-3.5996,-3.5939,-3.5949,-3.5952,-3.5997,-3.6017,-3.6034,-3.5801,-3.58,-3.5799,0,0,-3.5738,-3.5745,-3.581,-3.5819,-3.5832,-3.5819,-3.5835,-3.5838,-3.5834,-3.59,-3.5852,-3.5889,-3.5951,-3.5961,-3.5974,-3.6112,-3.6074,-3.6124,-3.6205,-3.6252,-3.6269,-3.6283,-3.6331,-3.6349,-3.6134,-3.6134,-3.6134,0,-3.5812,-3.5878,-3.5847,-3.59,-3.5918,-3.5863,-3.5927,-3.5938,-3.5961,-3.5973,-3.5937,-3.6012,-3.6016,-3.6099,-3.6132,-3.6145,-3.6161,-3.6122,-3.6269,-3.6283,-3.6296,-3.6342,-3.636,-3.614,-3.6139,-3.6139,-3.6138,0,-3.5968,-3.6014,-3.6065,-3.6089,-3.6112,-3.6171,-3.6148,-3.6175,-3.615,-3.6141,-3.6207,-3.621,-3.6241,-3.6259,-3.6235,-3.6338,-3.6317,-3.6275,-3.6209,-3.6323,-3.6365,-3.6382,-3.6148,-3.6146,-3.6145,-3.6143,0,0,-3.6159,-3.6165,-3.6184,-3.6194,-3.6204,-3.6238,-3.6294,-3.6325,-3.6348,-3.6366,-3.641,-3.6464,-3.6425,-3.644,-3.6417,-3.6458,-3.6566,-3.6411,-3.6411,-3.6439,-3.6678,-3.6708,-3.6729,-3.6541,-3.6544,-3.6547,-3.6676,0,-3.6291,-3.6387,-3.6361,-3.6456,-3.6497,-3.6445,-3.6493,-3.6504,-3.6497,-3.653,-3.6521,-3.6559,-3.6505,-3.6514,-3.6553,-3.6545,-3.6613,-3.6535,-3.6581,-3.6583,-3.6579,-3.6751,-3.6783,-3.6905,-3.6692,-3.6695,-3.6697,0,-3.6457,-3.6481,-3.6581,-3.6584,-3.66,-3.6644,-3.6669,-3.6702,-3.6713,-3.6704,-3.6721,-3.6689,-3.6743,-3.6677,-3.675,-3.6697,-3.6714,-3.6713,-3.6717,-3.6719,-3.6646,-3.6756,-3.6943,-3.6961,-3.6723,-3.6721,-3.6719,0,-3.6585,-3.6642,-3.6709,-3.6719,-3.6724,-3.6756,-3.6759,-3.6767,-3.6786,-3.6808,-3.6821,-3.6849,-3.6864,-3.6886,-3.6862,-3.6817,-3.6938,-3.687,-3.6931,-3.6932,-3.6958,-3.6956,-3.7149,-3.6971,-3.6971,-3.6971,-3.697,0,-3.6734,-3.6796,-3.6766,-3.6807,-3.6875,-3.6844,-3.6912,-3.691,-3.6917,-3.6955,-3.6912,-3.6949,-3.6916,-3.695,-3.6932,-3.6994,-3.7001,-3.6995,-3.6989,-3.6998,-3.6999,-3.7008,-3.6998,-3.6976,-3.6974,-3.6974,-3.6973,0,-3.6887,-3.687,-3.6939,-3.6938,-3.6939,-3.6989,-3.6988,-3.7025,-3.7014,-3.7064,-3.7074,-3.7056,-3.7094,-3.7073,-3.7111,-3.7099,-3.7179,-3.7162,-3.7175,-3.717,-3.7232,-3.7226,-3.7436,-3.7462,-3.7269,-3.7271,-3.7272,0,-3.6983,-3.703,-3.7034,-3.7057,-3.7064,-3.7102,-3.7121,-3.7093,-3.7115,-3.7131,-3.7166,-3.72,-3.7225,-3.7287,-3.7278,-3.7306,-3.7289,-3.7361,-3.7293,-3.73,-3.7289,-3.7286,-3.729,-3.7374,-3.7376,-3.7378,-3.738,0,-3.7154,-3.7143,-3.7174,-3.7202,-3.7227,-3.7248,-3.7264,-3.7285,-3.7257,-3.7284,-3.7322,-3.7342,-3.7381,-3.7415,-3.7439,-3.7441,-3.7406,-3.7401,-3.7417,-3.7426,-3.7431,-3.7428,-3.7211,-3.7396,-3.7395,-3.7394,-3.7393,-3.7392,-3.7281,-3.732,-3.7328,-3.7364,-3.7374,-3.739,-3.7425,-3.7418,-3.745,-3.748,-3.7461,-3.7505,-3.7514,-3.7543,-3.755,-3.7583,-3.7554,-3.7577,-3.7582,-3.7588,-3.7596,-3.7427,-3.7588,-3.7587,-3.7587,-3.7586,-3.7586,0,-3.7448,-3.7452,-3.7485,-3.7509,-3.7537,-3.7502,-3.7519,-3.7544,-3.7584,-3.7595,-3.7621,-3.7664,-3.7697,-3.769,-3.7719,-3.7747,-3.7731,-3.7755,-3.7752,-3.7753,-3.7621,-3.7604,-3.7767,-3.7767,-3.7767,-3.7767,-3.7767,-3.7767,-3.7539,-3.7602,-3.7592,-3.766,-3.7662,-3.7706,-3.7718,-3.7733,-3.7741,-3.7792,-3.7818,-3.7814,-3.7818,-3.7846,-3.7874,-3.7871,-3.7883,-3.7913,-3.7904,-3.7781,-3.7763,-3.7745,-3.7729,-3.7917,-3.7917,-3.8033,-3.8035,-3.8035]}]]